Espace membre
Imprimable
Challenges > Delhalle - Chatelet, 04/06/2006, BEL - La Chatelettaine
Liste des rapports > Delhalle - 14km - Classement scratch
Recherche: Page: [1]
26 Entrées
 
Les réclamations ne sont plus acceptées, les résultats sont considérés comme définitifs.
RangNrNomAgeIOCLigueEquipeRéelTempsTkmMoy.ScrPtsLocalité
1.392FBRIALMONT Irene49BELSPASPA MON1:00:151:00:194:18 13.9877791SPA
2.914FVAN HOOF Wella43BELLIER1:01:381:01:454:24 13.6697752BERLAAR
3.1230FMEUNIER Claire44BELARCH1:01:481:01:554:25 13.62101746ASSESSE
4.1989FDEMOULIN Brigitte46BELSMAC1:03:081:03:154:31 13.33116712LUSTIN
5.734FYERNAUX Huguette45BELBBS1:10:181:10:255:01 11.98237508NOLLEVAUX
6.2317FDACHELET Chantal46BELGERPINNES&CO1:10:461:10:565:03 11.89259485
7.1052FROUZEEUW Ginette49BELRIWA1:11:451:11:555:08 11.73273460RIXENSART
8.366FLANSLOTS Viviane41BELAVN1:11:591:12:215:09 11.66280451MERKSPLAS
9.2258FAUBERGER Claudine42BELBJBJC BRAQUEFRIES1:11:551:12:275:10 11.64284449
10.2327FMESTACH Christine45BELFLEU1:13:271:13:355:15 11.46305412
11.1432FSALENS Lia41BEL1:14:191:14:455:20 11.28325385WOLVERTEM
12.2239FBALLY Pascale41BEL1:14:341:15:015:21 11.24326380BRUXELLES
13.2007FDOOMS Carine41BELACLO1:16:321:16:515:29 10.97356330LA HESTRE
14.2240FPIROTTE Helene46BELHRC1:16:421:17:085:30 10.93359326ARLON
15.2012FPELTGEN Marie-Paule45BEL1:17:191:17:415:32 10.85366312EGHEZÉE
16.942FVAN NIEUWENHOVEN Martine47BELANTILOB1:18:411:18:565:37 10.68379283LIMAL
17.2246FREMICHE Anne-Marie42BELAMAY1:20:461:21:155:47 10.38405236GEMBLOUX
18.300FADAM Francoise45BELHRC1:21:191:21:375:49 10.33408226VIRTON
19.2320FGILLES Francoise48BELESM1:22:551:23:325:57 10.09420196MONTIGNY-LE-TILLEUL
20.1020FDROZDWOSKI Carmen45BELFOUL PLAIS1:23:151:23:475:58 10.06423189HUY
21.251FSOMMELETTE M.Christine47BELJOGGANS1:24:171:24:526:03 9.94434168GANSHOREN
22.2273FLEROY Anne44BELTORTUES1:26:061:26:206:09 9.77442138SILLY
23.2284FCONSTANT M.Christine46BELTORTUES1:26:251:26:386:10 9.73445132ARBRE
24.1342FDEWILDE Magali42BELDACMJOGGANS1:26:241:26:496:11 9.71447131MOLENBEEK-ST-JEAN
25.2267FPAULUS Rolande48BELJC HSH1:28:121:28:486:20 9.50455102HAM-SUR-HEURE
26.2252FDELVIN Regine43BELTORTUES1:34:501:35:046:46 8.8747012BASSILLY
DNF: abandon; DSQ: disqualifié; Vitesse en km/h
Page: [1]